CW8078 Weather Reports


time (UTC)temp
C
wind
direction
speed
KPH
gust
KPH
rain 1hr
cm
rain 24hr
cm
rain mn
cm
humidity
%
barometer
mb
20260509163803 22 217 0.0 0.0 0.00 1.32 0.00 68 1007.8
20260509163303 22 202 0.0 3.2 0.00 1.32 0.00 70 1007.8
20260509161803 21 278 0.0 0.0 0.00 1.32 0.00 73 1007.7
20260509161303 21 199 0.0 3.2 0.00 1.32 0.00 72 1007.8
20260509160803 20 202 0.0 3.2 0.00 1.32 0.00 75 1007.6
20260509160303 20 219 0.0 0.0 0.00 1.32 0.00 79 1007.7
20260509154803 19 212 0.0 0.0 0.00 1.32 0.00 82 1007.7
20260509153802 18 218 0.0 1.6 0.00 1.32 0.00 82 1007.7
20260509153302 18 174 0.0 3.2 0.00 1.32 0.00 84 1007.6
20260509151803 17 166 0.0 3.2 0.00 1.32 0.00 86 1007.7
20260509150803 17 205 0.0 0.0 0.00 1.32 0.00 88 1007.7
20260509150303 17 205 0.0 1.6 0.00 1.32 0.00 89 1007.7
20260509144303 16 134 0.0 0.0 0.00 1.32 0.00 92 1007.8
20260509143303 16 203 0.0 0.0 0.00 1.32 0.00 93 1007.6
20260509141803 15 184 0.0 0.0 0.00 1.32 0.00 95 1007.6
20260509141303 15 184 0.0 0.0 0.00 1.32 0.00 95 1007.6
20260509140303 15 159 0.0 0.0 0.00 1.32 0.00 95 1007.5
20260509134803 14 159 0.0 0.0 0.00 1.32 0.00 96 1007.6
20260509134303 14 159 0.0 0.0 0.00 1.32 0.00 95 1007.6
20260509133803 14 159 0.0 0.0 0.00 1.32 0.00 95 1007.4
20260509133303 14 159 0.0 0.0 0.00 1.32 0.00 95 1007.5
20260509131803 13 159 0.0 0.0 0.00 1.32 0.00 95 1007.4
20260509130303 13 159 0.0 0.0 0.00 1.32 0.00 95 1007.4
20260509124803 13 159 0.0 0.0 0.00 1.32 0.00 95 1007.1
20260509123803 13 159 0.0 0.0 0.00 1.32 0.00 95 1007.0
20260509123303 13 159 0.0 0.0 0.00 1.32 0.00 95 1007.0
20260509121302 13 159 0.0 0.0 0.00 1.32 0.00 95 1007.2
20260509120303 13 159 0.0 0.0 0.00 1.32 0.00 95 1007.0
20260509114302 12 159 0.0 0.0 0.00 1.32 0.00 95 1007.0
20260509113803 12 159 0.0 0.0 0.00 1.32 0.00 95 1007.0
20260509113303 12 159 0.0 0.0 0.00 1.32 0.00 95 1007.0
20260509111803 12 159 0.0 0.0 0.00 1.32 0.00 95 1007.0
20260509111303 12 159 0.0 0.0 0.00 1.32 0.00 95 1007.0
20260509110303 12 159 0.0 0.0 0.00 1.32 0.00 95 1006.9
20260509104803 12 158 0.0 0.0 0.00 1.32 0.00 95 1006.8
20260509103803 12 158 0.0 0.0 0.00 1.32 0.00 95 1006.8
20260509103303 12 158 0.0 0.0 0.00 1.32 0.00 95 1006.8
20260509101803 12 158 0.0 0.0 0.00 1.32 0.00 95 1006.8
20260509101303 12 158 0.0 0.0 0.00 1.32 0.00 95 1006.8
20260509100803 12 158 0.0 0.0 0.00 1.32 0.00 95 1006.8
20260509100303 12 158 0.0 0.0 0.00 1.32 0.00 95 1006.8
20260509094803 12 158 0.0 0.0 0.00 1.32 0.00 95 1006.8
20260509094304 12 124 0.0 0.0 0.00 1.32 0.00 95 1006.7
20260509093803 12 124 0.0 0.0 0.00 1.32 0.00 95 1006.8
20260509093303 12 124 0.0 0.0 0.00 1.32 0.00 95 1006.8
20260509091802 12 124 0.0 0.0 0.00 1.32 0.00 95 1006.8
20260509091303 12 124 0.0 0.0 0.00 1.32 0.00 95 1006.7
20260509090803 12 124 0.0 0.0 0.00 1.32 0.00 95 1006.7
20260509090303 12 124 0.0 0.0 0.00 1.32 0.00 95 1006.6
20260509084803 12 139 0.0 0.0 0.00 1.32 0.00 95 1006.4
20260509084303 12 139 0.0 0.0 0.00 1.32 0.00 95 1006.5
20260509083802 12 139 0.0 0.0 0.00 1.32 0.00 95 1006.4
20260509083303 12 139 0.0 0.0 0.00 1.32 0.00 95 1006.3
20260509081803 12 139 0.0 0.0 0.00 1.32 0.00 95 1006.2
20260509081302 12 139 0.0 0.0 0.00 1.32 0.00 95 1006.1
20260509080803 12 139 0.0 0.0 0.00 1.32 0.00 95 1006.1
20260509074303 12 139 0.0 0.0 0.00 1.32 0.00 95 1006.2
20260509073803 12 139 0.0 0.0 0.00 1.32 0.00 95 1006.3
20260509073303 12 139 0.0 0.0 0.00 1.32 0.00 95 1006.3
20260509071803 12 139 0.0 0.0 0.00 1.32 0.00 95 1006.4
20260509070803 12 139 0.0 0.0 0.00 1.32 0.00 95 1006.4
20260509070303 12 139 0.0 0.0 0.00 1.32 0.00 95 1006.3
20260509064803 12 139 0.0 0.0 0.00 1.32 0.00 95 1006.3
20260509064303 12 139 0.0 0.0 0.00 1.32 0.00 94 1006.3
20260509063303 12 139 0.0 0.0 0.00 1.32 0.00 94 1006.4
20260509061804 12 139 0.0 0.0 0.00 1.32 0.00 94 1006.5
20260509061303 12 139 0.0 0.0 0.00 1.32 0.00 94 1006.6
20260509060803 12 139 0.0 0.0 0.00 1.32 0.00 94 1006.6
20260509060303 12 139 0.0 0.0 0.00 1.32 0.00 94 1006.6
20260509054803 12 139 0.0 0.0 0.00 1.32 0.00 94 1006.6
20260509054303 12 139 0.0 0.0 0.00 1.32 0.00 94 1006.6
20260509053803 12 139 0.0 0.0 0.00 1.32 0.00 94 1006.6
20260509053303 12 139 0.0 0.0 0.00 1.32 0.00 94 1006.7
20260509051804 12 139 0.0 0.0 0.00 1.32 0.00 94 1006.7
20260509051303 12 139 0.0 0.0 0.00 1.32 0.00 94 1006.8
20260509050803 12 139 0.0 0.0 0.00 1.32 0.00 94 1006.7
20260509050303 12 139 0.0 0.0 0.00 1.32 0.00 94 1006.8
20260509044803 12 139 0.0 0.0 0.00 1.32 1.32 94 1006.8
20260509044303 12 139 0.0 0.0 0.00 1.32 1.32 94 1006.8
20260509043803 12 139 0.0 0.0 0.00 1.32 1.32 94 1006.8
20260509043303 12 139 0.0 0.0 0.00 1.32 1.32 94 1006.5
20260509041803 13 139 0.0 0.0 0.00 1.32 1.32 94 1006.5
20260509041303 13 139 0.0 0.0 0.00 1.32 1.32 94 1006.6
20260509040804 13 139 0.0 0.0 0.00 1.32 1.32 94 1006.6
20260509040303 13 139 0.0 0.0 0.00 1.32 1.32 94 1006.7
20260509034803 13 139 0.0 0.0 0.00 1.32 1.32 94 1006.8
20260509034303 13 139 0.0 0.0 0.03 1.32 1.32 94 1006.9
20260509033803 13 139 0.0 0.0 0.03 1.32 1.32 94 1006.9
20260509033303 13 139 0.0 0.0 0.03 1.32 1.32 94 1006.8
20260509031803 13 139 0.0 0.0 0.03 1.32 1.32 94 1006.7
20260509031303 13 139 0.0 0.0 0.03 1.32 1.32 94 1006.6
20260509030803 13 139 0.0 0.0 0.03 1.32 1.32 94 1006.6
20260509030303 13 139 0.0 0.0 0.03 1.32 1.32 94 1006.7
20260509024803 13 139 0.0 0.0 0.08 1.32 1.32 94 1006.8
20260509024303 13 139 0.0 0.0 0.10 1.30 1.30 94 1006.9
20260509023803 13 139 0.0 0.0 0.15 1.30 1.30 94 1006.9
20260509023303 13 139 0.0 0.0 0.20 1.30 1.30 93 1006.9
20260509021803 13 140 0.0 0.0 0.36 1.30 1.30 93 1007.0
20260509021303 13 140 0.0 0.0 0.41 1.30 1.30 93 1006.8
20260509020804 13 140 0.0 0.0 0.43 1.30 1.30 93 1006.9
20260509020303 13 140 0.0 0.0 0.48 1.30 1.30 93 1007.0
20260509013803 13 140 0.0 0.0 0.58 1.14 1.14 93 1007.2
20260509013304 13 140 0.0 0.0 0.61 1.09 1.09 93 1007.3
20260509011804 13 140 0.0 0.0 0.76 0.94 0.94 92 1007.0
20260509010803 13 140 0.0 0.0 0.79 0.86 0.86 92 1006.9
20260509010303 14 202 0.0 0.0 0.74 0.81 0.81 91 1007.3
20260509004803 15 277 0.0 0.0 0.58 0.66 0.66 92 1007.5
20260509004303 15 277 0.0 0.0 0.56 0.64 0.64 92 1007.7
20260509003803 15 277 0.0 0.0 0.48 0.56 0.56 92 1007.6
20260509001803 15 341 0.0 0.0 0.10 0.18 0.18 92 1007.4
20260509001303 15 342 0.0 0.0 0.03 0.10 0.10 92 1006.9
20260509000803 15 18 0.0 0.0 0.00 0.08 0.08 92 1006.5
20260509000303 15 20 0.0 0.0 0.00 0.08 0.08 91 1006.2
20260508233803 15 44 0.0 0.0 0.05 0.08 0.08 91 1006.0
20260508233304 15 5 0.0 1.6 0.05 0.08 0.08 90 1006.1
20260508231804 16 343 0.0 3.2 0.05 0.08 0.08 91 1006.4
20260508231304 16 6 0.0 4.8 0.05 0.08 0.08 91 1006.4
20260508230803 16 25 0.0 0.0 0.05 0.08 0.08 90 1006.5
20260508230303 16 352 0.0 0.0 0.05 0.08 0.08 90 1006.5
20260508224304 16 355 0.0 0.0 0.00 0.03 0.03 89 1007.0
20260508223803 16 350 0.0 0.0 0.03 0.03 0.03 89 1007.0
20260508223303 16 5 0.0 0.0 0.03 0.03 0.03 89 1007.0
20260508221803 16 5 0.0 0.0 0.03 0.03 0.03 89 1007.1
20260508220803 16 5 0.0 0.0 0.03 0.03 0.03 87 1007.0
20260508220303 16 5 0.0 0.0 0.03 0.03 0.03 87 1007.0
20260508214803 17 5 0.0 0.0 0.03 0.03 0.03 85 1007.1
20260508214303 17 5 0.0 0.0 0.03 0.03 0.03 85 1007.1
20260508213803 17 5 0.0 0.0 0.00 0.00 0.00 84 1007.0
20260508213303 17 5 0.0 0.0 0.00 0.00 0.00 82 1006.8
20260508211803 18 5 0.0 0.0 0.00 0.00 0.00 77 1006.5
20260508211303 19 5 0.0 0.0 0.00 0.00 0.00 73 1006.5
20260508210804 19 5 0.0 0.0 0.00 0.00 0.00 69 1007.1
20260508210304 20 5 0.0 0.0 0.00 0.00 0.00 67 1007.1
20260508204804 20 3 0.0 0.0 0.00 0.00 0.00 66 1007.3
20260508204304 20 0 0.0 0.0 0.00 0.00 0.00 66 1007.4
20260508203803 20 242 0.0 0.0 0.00 0.00 0.00 64 1007.6
20260508201803 20 308 0.0 0.0 0.00 0.00 0.00 62 1007.8
20260508201303 20 242 0.0 0.0 0.00 0.00 0.00 64 1007.9
20260508200804 20 202 0.0 0.0 0.00 0.00 0.00 67 1008.0
20260508200304 20 182 0.0 0.0 0.00 0.00 0.00 66 1008.0
20260508194304 20 208 0.0 0.0 0.00 0.00 0.00 67 1008.3
20260508193803 20 208 0.0 0.0 0.00 0.00 0.00 67 1008.2
20260508193303 19 208 0.0 0.0 0.00 0.00 0.00 64 1007.8
20260508191803 19 187 0.0 0.0 0.00 0.00 0.00 65 1008.4
20260508191303 18 192 0.0 0.0 0.00 0.00 0.00 68 1008.5
20260508190804 18 192 0.0 0.0 0.00 0.00 0.00 69 1008.5
20260508184803 17 163 0.0 0.0 0.00 0.00 0.00 70 1008.5
20260508184303 17 163 0.0 0.0 0.00 0.00 0.00 71 1008.6
20260508183803 17 163 0.0 0.0 0.00 0.00 0.00 70 1008.5
20260508183303 17 163 0.0 0.0 0.00 0.00 0.00 70 1008.4
20260508181803 17 163 0.0 0.0 0.00 0.00 0.00 70 1008.4
20260508181303 17 163 0.0 0.0 0.00 0.00 0.00 70 1008.3
20260508180804 17 163 0.0 0.0 0.00 0.00 0.00 70 1008.3
20260508174804 17 164 0.0 0.0 0.00 0.00 0.00 71 1008.5
20260508174304 17 166 0.0 0.0 0.00 0.00 0.00 69 1008.5
20260508173803 17 161 0.0 0.0 0.00 0.00 0.00 70 1008.5
20260508173303 17 161 0.0 4.8 0.00 0.00 0.00 69 1008.6
20260508171803 16 163 0.0 3.2 0.00 0.00 0.00 71 1008.7
20260508171303 16 152 0.0 0.0 0.00 0.00 0.00 70 1008.8
20260508170803 16 180 0.0 0.0 0.00 0.00 0.00 72 1008.9
20260508170303 15 180 0.0 0.0 0.00 0.00 0.00 73 1009.1